Location: Newark
(32.9900°N, 111.5400°W)
Time: 01:28:46
(UTC+00:00)

N. Korean satellite - Visible Passes

Search period start: 20 November 2019 00:00
Search period end: 30 November 2019 00:00
Orbit: 456 x 506 km, 97.2° (Epoch: 18 November)

Date Brightness Start Highest point End Pass type
(mag) Time Alt. Az. Time Alt. Az. Time Alt. Az.
21 Nov 10.3 01:45:09 10° WSW 01:46:06 11° W 01:47:02 10° WNW visible
21 Nov 6.7 13:12:49 10° NNE 13:16:30 83° ESE 13:20:06 10° S visible
22 Nov 9.3 01:17:35 10° SSW 01:20:33 24° W 01:23:34 10° NW visible
22 Nov 8.5 12:47:44 10° NNE 12:51:05 34° E 12:54:23 10° SSE visible
23 Nov 7.5 00:51:32 10° S 00:55:06 55° W 00:58:44 10° NNW visible
23 Nov 9.9 12:23:21 10° NE 12:25:35 15° E 12:27:47 10° SE visible
24 Nov 6.7 13:30:05 10° N 13:33:39 52° WNW 13:37:08 10° SSW visible
25 Nov 10.0 01:35:50 10° SW 01:37:50 14° W 01:39:50 10° WNW visible
25 Nov 7.1 13:04:40 10° NNE 13:08:17 62° E 13:11:49 10° S visible
26 Nov 8.8 01:09:03 10° SSW 01:12:18 30° W 01:15:37 10° NW visible
26 Nov 9.0 12:39:44 10° NE 12:42:50 26° E 12:45:52 10° SSE visible
27 Nov 6.9 00:43:13 10° S 00:46:52 74° W 00:50:35 10° NNW visible
27 Nov 10.1 12:15:52 10° ENE 12:17:17 12° E 12:18:40 10° ESE visible
28 Nov 6.5 13:21:49 10° N 13:25:25 70° WNW 13:28:56 10° SSW visible
29 Nov 9.8 01:26:57 10° SW 01:29:32 18° W 01:32:08 10° NW visible
29 Nov 7.7 12:56:31 10° NNE 13:00:01 46° E 13:03:25 10° S visible
